{"data":{"norad_id":67198,"epoch":"2026-05-24T22:21:29.907360Z","epoch_age_seconds":84144,"freshness":"FRESH","line1":"1 67198U 25304G   26144.93159615  .00002158  00000+0  18859-3 0  9990","line2":"2 67198  70.0019 342.2778 0002402 266.0643  94.0241 14.98334724 25279","mean_motion":14.98334724,"eccentricity":0.0002402,"inclination_deg":70.0019,"raan_deg":342.2778,"arg_perigee_deg":266.0643,"mean_anomaly_deg":94.0241,"bstar":0.00018859,"rev_number":2527,"period_min":96.106696116321,"perigee_km":570.37184957905,"apogee_km":573.71071522592,"semimajor_km":6950.1782824025,"source":"CELESTRAK","updated_at":"2026-05-25T13:38:21.507814Z"}}